Regional Weather Roundup
Issued by NWS Cleveland, OH

Home | Current Version | Previous Version | Graphics & Text | Print | Product List | Glossary On
Versions: 1 2 3 4 5 6 7 8 9 10 11 12 13 14 15 16 17 18 19 20 21 22 23 24 25 26 27 28 29 30 31 32 33 34 35 36 37 38 39 40 41 42 43 44 45 46 47 48 49 50
000
ASUS41 KCLE 291512
RWRCLE
OHIO REGIONAL WEATHER ROUNDUP
NATIONAL WEATHER SERVICE WILMINGTON, OH
1100 AM EDT SAT APR 29 2017

NOTE: "FAIR" INDICATES FEW OR NO CLOUDS BELOW 12,000 FEET WITH NO
SIGNIFICANT WEATHER AND/OR OBSTRUCTIONS TO VISIBILITY.

OHZ001>008-015>018-024>027-034-035-043-044-291600-
   NORTHWEST OHIO

CITY           SKY/WX    TMP DP  RH WIND       PRES   REMARKS
DEFIANCE       CLOUDY    49  47  93 N13       30.13R
FINDLAY        LGT RAIN  50  45  83 NE20G29   30.12R
TOLEDO EXPRESS CLOUDY    47  44  90 NE10      30.15R
TOLEDO EXEC    CLOUDY    48  42  80 NE14G21   30.17R
LIMA           LGT RAIN  56  56 100 NE9       30.11R
$$

OHZ009>014-019>023-028>033-038-089-291600-
   NORTHEAST OHIO

CITY           SKY/WX    TMP DP  RH WIND       PRES   REMARKS
CLE-HOPKINS    CLOUDY    49  44  83 N14       30.15R HAZE
CLE-LAKEFRONT  CLOUDY    48  44  86 N12       30.14R FOG
CUY CO. ARPT     N/A     48  46  93 NE7       30.15R FOG
LORAIN-ELYRIA  LGT RAIN  45  41  86 NE16G23   30.12F FOG
ASHTABULA      CLOUDY    53  51  93 CALM      30.15R
AKRON-CANTON   LGT RAIN  58  54  86 NE6       30.10S FOG
WOOSTER        LGT RAIN  56  54  93 CALM      30.12R
MANSFIELD      LGT RAIN  56  55  97 NE3       30.11R FOG
YOUNGSTOWN     LGT RAIN  57  55  93 W3        30.12R FOG
$$

OHZ042-051>053-060>062-070>072-077>081-291600-
  SOUTHWEST OHIO

CITY           SKY/WX    TMP DP  RH WIND       PRES   REMARKS
CINC-COVINGTON CLOUDY    62  62 100 E5        30.09S
CINC-LUNKEN    LGT RAIN  62  62 100 NW6       30.12S
HAMILTON       LGT RAIN  64  63  96 E6        30.10R
DAYTON         TSTM      63  63 100 CALM      30.06S FOG
WRIGHT-PAT AFB TSTM      63  63 100 SE8       30.08R FOG
DAYTON GENERAL RAIN      63  62  97 S7        30.10R FOG
WILMINGTON     TSTM      61  61 100 MISG      30.13R FOG
$$

OHZ036-037-039>041-045>050-054>059-063>069-073>076-082>088-291600-
  CENTRAL AND SOUTHEAST OHIO

CITY           SKY/WX    TMP DP  RH WIND       PRES   REMARKS
COLUMBUS       TSTM      63  63 100 NE7       30.13R FOG
OSU AIRPORT    TSTM      63  63 100 E7        30.08F FOG
BOLTON FIELD   TSTM      63  63 100 E3        30.07F
RICKENBACK AFB TSTM      61  62 100 E6        30.08F
NEWARK         TSTM      63  61  93 S8        30.14R VSB 1
MARION         TSTM      57  56  96 CALM      30.12R FOG
LANCASTER      TSTM      64  61  90 NE3       30.11F FOG
ZANESVILLE     LGT RAIN  63  61  93 E5        30.07F
NEW PHILLY     LGT RAIN  65  62  90 CALM      30.11R
$$




USA.gov is the U.S. government's official web portal to all federal, state and local government web resources and services.